| time (UTC) | temp F | wind direction | speed knots | gust knots | rain 1hr in | rain 24hr in | rain mn in | humidity % | barometer mb |
| 20260510224511 | 44 | 292 | 8.7 | 13.9 | 0.00 | 0.00 | 0.00 | 69 | 1018.2 |
| 20260510224509 | 44 | 288 | 7.8 | 13.0 | 0.00 | 0.00 | 0.00 | 70 | 1019.3 |
| 20260510224010 | 43 | 292 | 10.4 | 14.8 | 0.00 | 0.00 | 0.00 | 70 | 1019.4 |
| 20260510223521 | 43 | 290 | 10.4 | 14.8 | 0.00 | 0.00 | 0.00 | 70 | 1019.3 |
| 20260510223005 | 44 | 299 | 11.3 | 16.5 | 0.00 | 0.00 | 0.00 | 69 | 1018.3 |
| 20260510222510 | 44 | 279 | 12.2 | 15.6 | 0.00 | 0.00 | 0.00 | 70 | 1019.2 |
| 20260510222010 | 44 | 301 | 11.3 | 15.6 | 0.00 | 0.00 | 0.00 | 70 | 1019.2 |
| 20260510221510 | 43 | 296 | 10.4 | 14.8 | 0.00 | 0.00 | 0.00 | 70 | 1019.1 |
| 20260510221508 | 43 | 319 | 10.4 | 15.6 | 0.00 | 0.00 | 0.00 | 69 | 1018.4 |
| 20260510221043 | 43 | 298 | 11.3 | 14.8 | 0.00 | 0.00 | 0.00 | 69 | 1019.1 |
| 20260510220510 | 43 | 306 | 11.3 | 13.9 | 0.00 | 0.00 | 0.00 | 69 | 1019.0 |
| 20260510220013 | 43 | 319 | 9.6 | 13.0 | 0.00 | 0.00 | 0.00 | 71 | 1018.7 |
| 20260510220010 | 43 | 294 | 8.7 | 11.3 | 0.00 | 0.00 | 0.00 | 71 | 1019.0 |
| 20260510215521 | 43 | 300 | 9.6 | 12.2 | 0.00 | 0.00 | 0.00 | 70 | 1019.0 |
| 20260510214510 | 44 | 297 | 8.7 | 13.0 | 0.00 | 0.00 | 0.00 | 70 | 1018.9 |
| 20260510214503 | 44 | 300 | 9.6 | 13.9 | 0.00 | 0.00 | 0.00 | 70 | 1018.4 |
| 20260510213532 | 44 | 274 | 8.7 | 13.9 | 0.00 | 0.00 | 0.00 | 70 | 1018.7 |
| 20260510213032 | 44 | 288 | 10.4 | 13.9 | 0.00 | 0.00 | 0.00 | 69 | 1018.6 |
| 20260510213004 | 44 | 306 | 10.4 | 14.8 | 0.00 | 0.00 | 0.00 | 68 | 1017.8 |
| 20260510212010 | 43 | 300 | 11.3 | 16.5 | 0.00 | 0.00 | 0.00 | 68 | 1018.5 |
| 20260510211510 | 44 | 294 | 11.3 | 18.2 | 0.00 | 0.00 | 0.00 | 68 | 1018.5 |
| 20260510211506 | 44 | 298 | 12.2 | 19.1 | 0.00 | 0.00 | 0.00 | 67 | 1017.2 |
| 20260510211010 | 44 | 298 | 12.2 | 18.2 | 0.00 | 0.00 | 0.00 | 67 | 1018.4 |
| 20260510210013 | 46 | 294 | 9.6 | 19.1 | 0.00 | 0.00 | 0.00 | 61 | 1018.3 |
| 20260510210010 | 46 | 306 | 10.4 | 20.0 | 0.00 | 0.00 | 0.00 | 60 | 1017.0 |
| 20260510205021 | 45 | 292 | 12.2 | 15.6 | 0.00 | 0.00 | 0.00 | 65 | 1018.1 |
| 20260510204521 | 46 | 286 | 9.6 | 15.6 | 0.00 | 0.00 | 0.00 | 59 | 1016.8 |
| 20260510204010 | 47 | 248 | 8.7 | 14.8 | 0.00 | 0.00 | 0.00 | 51 | 1018.1 |
| 20260510203510 | 47 | 276 | 10.4 | 15.6 | 0.00 | 0.00 | 0.00 | 51 | 1018.0 |
| 20260510203011 | 47 | 226 | 8.7 | 15.6 | 0.00 | 0.00 | 0.00 | 52 | 1018.0 |
| 20260510203003 | 47 | 252 | 9.6 | 16.5 | 0.00 | 0.00 | 0.00 | 52 | 1016.8 |
| 20260510202521 | 47 | 294 | 7.8 | 14.8 | 0.00 | 0.00 | 0.00 | 54 | 1018.0 |
| 20260510201533 | 45 | 277 | 11.3 | 14.8 | 0.00 | 0.00 | 0.00 | 66 | 1018.0 |
| 20260510201503 | 45 | 269 | 12.2 | 15.6 | 0.00 | 0.00 | 0.00 | 66 | 1016.8 |
| 20260510201011 | 46 | 290 | 8.7 | 14.8 | 0.00 | 0.00 | 0.00 | 61 | 1018.0 |
| 20260510200522 | 48 | 292 | 11.3 | 15.6 | 0.00 | 0.00 | 0.00 | 50 | 1018.0 |
| 20260510200043 | 48 | 261 | 10.4 | 18.2 | 0.00 | 0.00 | 0.00 | 48 | 1017.8 |
| 20260510200013 | 48 | 271 | 10.4 | 19.1 | 0.00 | 0.00 | 0.00 | 47 | 1016.7 |
| 20260510195010 | 48 | 246 | 10.4 | 15.6 | 0.00 | 0.00 | 0.00 | 48 | 1017.7 |
| 20260510194521 | 48 | 235 | 7.8 | 15.6 | 0.00 | 0.00 | 0.00 | 49 | 1017.6 |
| 20260510194511 | 48 | 245 | 7.8 | 16.5 | 0.00 | 0.00 | 0.00 | 49 | 1016.5 |
| 20260510194011 | 48 | 240 | 9.6 | 17.4 | 0.00 | 0.00 | 0.00 | 50 | 1017.6 |
| 20260510193521 | 48 | 232 | 10.4 | 17.4 | 0.00 | 0.00 | 0.00 | 50 | 1017.6 |
| 20260510193021 | 48 | 259 | 7.0 | 16.5 | 0.00 | 0.00 | 0.00 | 52 | 1017.6 |
| 20260510193016 | 48 | 255 | 7.0 | 17.4 | 0.00 | 0.00 | 0.00 | 52 | 1016.5 |
| 20260510192510 | 48 | 235 | 7.8 | 17.4 | 0.00 | 0.00 | 0.00 | 53 | 1017.5 |
| 20260510192010 | 48 | 217 | 10.4 | 20.9 | 0.00 | 0.00 | 0.00 | 54 | 1017.5 |
| 20260510191520 | 48 | 252 | 12.2 | 21.7 | 0.00 | 0.00 | 0.00 | 52 | 1016.6 |
| 20260510191511 | 48 | 227 | 11.3 | 20.9 | 0.00 | 0.00 | 0.00 | 53 | 1017.5 |
| 20260510191010 | 48 | 244 | 11.3 | 16.5 | 0.00 | 0.00 | 0.00 | 52 | 1017.4 |
| 20260510190021 | 48 | 277 | 12.2 | 20.0 | 0.00 | 0.00 | 0.00 | 52 | 1017.2 |
| 20260510190007 | 48 | 263 | 12.2 | 22.6 | 0.00 | 0.00 | 0.00 | 52 | 1016.4 |
| 20260510185510 | 48 | 232 | 12.2 | 20.9 | 0.00 | 0.00 | 0.00 | 52 | 1017.1 |
| 20260510185032 | 48 | 271 | 14.8 | 21.7 | 0.00 | 0.00 | 0.00 | 51 | 1017.0 |
| 20260510184510 | 49 | 271 | 11.3 | 19.1 | 0.00 | 0.00 | 0.00 | 51 | 1016.8 |
| 20260510184044 | 49 | 242 | 10.4 | 17.4 | 0.00 | 0.00 | 0.00 | 50 | 1016.7 |
| 20260510183510 | 48 | 260 | 12.2 | 17.4 | 0.00 | 0.00 | 0.00 | 50 | 1016.6 |
| 20260510183021 | 47 | 243 | 10.4 | 15.6 | 0.00 | 0.00 | 0.00 | 52 | 1016.5 |
| 20260510183013 | 47 | 235 | 10.4 | 16.5 | 0.00 | 0.00 | 0.00 | 52 | 1016.0 |
| 20260510182521 | 45 | 276 | 7.8 | 15.6 | 0.00 | 0.00 | 0.00 | 68 | 1016.5 |
| 20260510182011 | 45 | 284 | 9.6 | 16.5 | 0.00 | 0.00 | 0.00 | 63 | 1016.4 |
| 20260510181543 | 45 | 301 | 13.0 | 16.5 | 0.00 | 0.00 | 0.00 | 65 | 1016.3 |
| 20260510181524 | 45 | 277 | 13.0 | 17.4 | 0.00 | 0.00 | 0.00 | 64 | 1016.1 |
| 20260510181010 | 44 | 316 | 7.8 | 13.9 | 0.00 | 0.00 | 0.00 | 72 | 1016.3 |
| 20260510180510 | 44 | 310 | 8.7 | 13.0 | 0.00 | 0.00 | 0.00 | 70 | 1016.2 |
| 20260510180024 | 44 | 296 | 9.6 | 13.9 | 0.00 | 0.00 | 0.00 | 71 | 1015.6 |
| 20260510180010 | 44 | 309 | 9.6 | 13.0 | 0.00 | 0.00 | 0.00 | 71 | 1016.2 |
| 20260510175522 | 43 | 307 | 4.3 | 10.4 | 0.00 | 0.00 | 0.00 | 73 | 1016.2 |
| 20260510175010 | 43 | 321 | 7.0 | 10.4 | 0.00 | 0.00 | 0.00 | 72 | 1016.3 |
| 20260510174533 | 43 | 333 | 7.8 | 11.3 | 0.00 | 0.00 | 0.00 | 70 | 1016.2 |
| 20260510174510 | 43 | 340 | 8.7 | 12.2 | 0.00 | 0.00 | 0.00 | 70 | 1014.9 |
| 20260510174022 | 43 | 324 | 7.8 | 11.3 | 0.00 | 0.00 | 0.00 | 70 | 1016.2 |
| 20260510173533 | 42 | 323 | 8.7 | 11.3 | 0.00 | 0.00 | 0.00 | 69 | 1016.2 |
| 20260510173021 | 42 | 338 | 7.0 | 7.8 | 0.00 | 0.00 | 0.00 | 72 | 1016.2 |
| 20260510173011 | 42 | 335 | 7.0 | 8.7 | 0.00 | 0.00 | 0.00 | 71 | 1014.9 |
| 20260510172510 | 42 | 331 | 3.5 | 4.3 | 0.00 | 0.00 | 0.00 | 73 | 1016.2 |
| 20260510172022 | 42 | 331 | 1.7 | 3.5 | 0.00 | 0.00 | 0.00 | 73 | 1016.3 |
| 20260510171514 | 42 | 331 | 0.9 | 2.6 | 0.00 | 0.00 | 0.00 | 71 | 1015.1 |
| 20260510171010 | 42 | 331 | 1.7 | 4.3 | 0.00 | 0.00 | 0.00 | 71 | 1016.4 |
| 20260510170522 | 42 | 331 | 2.6 | 4.3 | 0.00 | 0.00 | 0.00 | 70 | 1016.4 |
| 20260510170010 | 42 | 309 | 2.6 | 5.2 | 0.00 | 0.00 | 0.00 | 70 | 1016.5 |
| 20260510170004 | 42 | 309 | 2.6 | 6.1 | 0.00 | 0.00 | 0.00 | 69 | 1015.2 |
| 20260510165510 | 42 | 309 | 3.5 | 5.2 | 0.00 | 0.00 | 0.00 | 71 | 1016.4 |
| 20260510164510 | 41 | 315 | 3.5 | 6.1 | 0.00 | 0.00 | 0.00 | 72 | 1016.3 |
| 20260510164502 | 41 | 315 | 3.5 | 7.8 | 0.00 | 0.00 | 0.00 | 72 | 1015.1 |
| 20260510163510 | 41 | 305 | 5.2 | 7.8 | 0.00 | 0.00 | 0.00 | 73 | 1016.4 |
| 20260510163010 | 41 | 339 | 5.2 | 7.8 | 0.00 | 0.00 | 0.00 | 73 | 1016.4 |
| 20260510163004 | 41 | 336 | 4.3 | 8.7 | 0.00 | 0.00 | 0.00 | 73 | 1015.1 |
| 20260510162532 | 42 | 331 | 5.2 | 7.8 | 0.00 | 0.00 | 0.00 | 73 | 1016.4 |
| 20260510162010 | 41 | 338 | 4.3 | 8.7 | 0.00 | 0.00 | 0.00 | 75 | 1016.4 |
| 20260510161510 | 41 | 342 | 7.0 | 9.6 | 0.00 | 0.00 | 0.00 | 73 | 1016.3 |
| 20260510161502 | 41 | 321 | 7.0 | 10.4 | 0.00 | 0.00 | 0.00 | 73 | 1015.2 |
| 20260510161021 | 41 | 325 | 6.1 | 9.6 | 0.00 | 0.00 | 0.00 | 74 | 1016.3 |
| 20260510160510 | 42 | 332 | 7.0 | 9.6 | 0.00 | 0.00 | 0.00 | 74 | 1016.3 |
| 20260510160022 | 42 | 337 | 7.0 | 9.6 | 0.00 | 0.00 | 0.00 | 73 | 1016.3 |
| 20260510160009 | 42 | 336 | 7.8 | 10.4 | 0.00 | 0.00 | 0.00 | 73 | 1015.2 |
| 20260510155532 | 42 | 325 | 7.0 | 9.6 | 0.00 | 0.00 | 0.00 | 74 | 1016.2 |
| 20260510154543 | 43 | 325 | 7.0 | 10.4 | 0.00 | 0.00 | 0.00 | 74 | 1016.2 |
| 20260510154502 | 43 | 317 | 7.8 | 11.3 | 0.00 | 0.00 | 0.00 | 73 | 1015.1 |
| 20260510154023 | 43 | 307 | 6.1 | 9.6 | 0.00 | 0.00 | 0.00 | 75 | 1016.1 |
| 20260510153522 | 42 | 341 | 6.1 | 10.4 | 0.00 | 0.00 | 0.00 | 75 | 1016.0 |
| 20260510153033 | 42 | 319 | 7.0 | 9.6 | 0.00 | 0.00 | 0.00 | 75 | 1015.9 |
| 20260510153003 | 42 | 327 | 7.0 | 10.4 | 0.00 | 0.00 | 0.00 | 74 | 1014.9 |
| 20260510152521 | 42 | 315 | 6.1 | 9.6 | 0.00 | 0.00 | 0.00 | 74 | 1015.9 |
| 20260510152021 | 42 | 322 | 6.1 | 10.4 | 0.00 | 0.00 | 0.00 | 76 | 1015.9 |
| 20260510151511 | 42 | 313 | 6.1 | 10.4 | 0.00 | 0.00 | 0.00 | 75 | 1015.8 |
| 20260510151503 | 42 | 333 | 6.1 | 11.3 | 0.00 | 0.00 | 0.00 | 75 | 1014.9 |
| 20260510151010 | 42 | 322 | 6.1 | 9.6 | 0.00 | 0.00 | 0.00 | 75 | 1015.8 |
| 20260510150510 | 42 | 324 | 6.1 | 12.2 | 0.00 | 0.00 | 0.00 | 75 | 1015.7 |
| 20260510150021 | 41 | 316 | 9.6 | 12.2 | 0.00 | 0.00 | 0.00 | 74 | 1015.7 |
| 20260510150003 | 41 | 311 | 10.4 | 13.0 | 0.00 | 0.00 | 0.00 | 73 | 1014.8 |
| 20260510145533 | 42 | 311 | 9.6 | 12.2 | 0.00 | 0.00 | 0.00 | 74 | 1015.8 |
| 20260510145011 | 42 | 306 | 8.7 | 13.9 | 0.00 | 0.00 | 0.00 | 73 | 1015.7 |
| 20260510144511 | 42 | 306 | 8.7 | 13.9 | 0.00 | 0.00 | 0.00 | 72 | 1015.6 |
| 20260510144505 | 42 | 330 | 8.7 | 14.8 | 0.00 | 0.00 | 0.00 | 72 | 1014.7 |
| 20260510144010 | 42 | 317 | 8.7 | 13.0 | 0.00 | 0.00 | 0.00 | 73 | 1015.6 |
| 20260510143510 | 42 | 327 | 7.0 | 12.2 | 0.00 | 0.00 | 0.00 | 74 | 1015.6 |
| 20260510143010 | 42 | 310 | 8.7 | 13.9 | 0.00 | 0.00 | 0.00 | 73 | 1015.5 |
| 20260510143008 | 42 | 320 | 8.7 | 14.8 | 0.00 | 0.00 | 0.00 | 72 | 1014.5 |
| 20260510142510 | 42 | 338 | 8.7 | 13.9 | 0.00 | 0.00 | 0.00 | 72 | 1015.4 |
| 20260510142010 | 42 | 329 | 9.6 | 13.9 | 0.00 | 0.00 | 0.00 | 72 | 1015.5 |
| 20260510141507 | 42 | 321 | 9.6 | 14.8 | 0.00 | 0.00 | 0.00 | 69 | 1014.4 |
| 20260510141021 | 42 | 323 | 8.7 | 12.2 | 0.00 | 0.00 | 0.00 | 71 | 1015.5 |
| 20260510140010 | 42 | 329 | 8.7 | 13.0 | 0.00 | 0.00 | 0.00 | 71 | 1015.5 |
| 20260510140004 | 42 | 325 | 8.7 | 13.9 | 0.00 | 0.00 | 0.00 | 71 | 1014.4 |
| 20260510135544 | 42 | 302 | 9.6 | 13.0 | 0.00 | 0.00 | 0.00 | 71 | 1015.5 |
| 20260510135010 | 42 | 317 | 8.7 | 14.8 | 0.00 | 0.00 | 0.00 | 71 | 1015.4 |
| 20260510134522 | 42 | 295 | 10.4 | 14.8 | 0.00 | 0.00 | 0.00 | 70 | 1015.4 |
| 20260510134504 | 42 | 321 | 11.3 | 15.6 | 0.00 | 0.00 | 0.00 | 69 | 1014.4 |
| 20260510134011 | 42 | 306 | 8.7 | 13.9 | 0.00 | 0.00 | 0.00 | 69 | 1015.3 |
| 20260510133510 | 42 | 302 | 9.6 | 13.9 | 0.00 | 0.00 | 0.00 | 68 | 1015.4 |
| 20260510133010 | 42 | 323 | 9.6 | 14.8 | 0.00 | 0.00 | 0.00 | 68 | 1015.4 |
| 20260510133003 | 42 | 297 | 9.6 | 15.6 | 0.00 | 0.00 | 0.00 | 68 | 1014.4 |
| 20260510132511 | 42 | 313 | 9.6 | 14.8 | 0.00 | 0.00 | 0.00 | 65 | 1015.4 |
| 20260510132010 | 42 | 312 | 10.4 | 14.8 | 0.00 | 0.00 | 0.00 | 65 | 1015.3 |
| 20260510131505 | 42 | 303 | 11.3 | 19.1 | 0.00 | 0.00 | 0.00 | 63 | 1014.3 |
| 20260510131010 | 42 | 268 | 12.2 | 18.2 | 0.00 | 0.00 | 0.00 | 60 | 1015.2 |
| 20260510130533 | 42 | 288 | 13.0 | 17.4 | 0.00 | 0.00 | 0.00 | 63 | 1015.2 |
| 20260510130009 | 42 | 289 | 11.3 | 18.2 | 0.00 | 0.00 | 0.00 | 61 | 1014.1 |
| 20260510125521 | 42 | 265 | 13.0 | 17.4 | 0.00 | 0.00 | 0.00 | 60 | 1015.1 |
| 20260510125022 | 42 | 278 | 7.8 | 15.6 | 0.00 | 0.00 | 0.00 | 60 | 1014.9 |
| 20260510124544 | 42 | 250 | 10.4 | 15.6 | 0.00 | 0.00 | 0.00 | 61 | 1015.0 |
| 20260510124506 | 42 | 269 | 10.4 | 16.5 | 0.00 | 0.00 | 0.00 | 60 | 1014.0 |
| 20260510124011 | 42 | 273 | 9.6 | 14.8 | 0.00 | 0.00 | 0.00 | 62 | 1014.9 |
| 20260510123532 | 42 | 306 | 10.4 | 13.9 | 0.00 | 0.00 | 0.00 | 62 | 1014.8 |
| 20260510123022 | 42 | 274 | 8.7 | 17.4 | 0.00 | 0.00 | 0.00 | 64 | 1014.8 |
| 20260510123007 | 42 | 266 | 9.6 | 18.2 | 0.00 | 0.00 | 0.00 | 64 | 1013.9 |
| 20260510122510 | 41 | 283 | 8.7 | 17.4 | 0.00 | 0.00 | 0.00 | 65 | 1014.7 |
| 20260510121522 | 41 | 250 | 9.6 | 13.9 | 0.00 | 0.00 | 0.00 | 68 | 1014.7 |
| 20260510121503 | 41 | 256 | 9.6 | 14.8 | 0.00 | 0.00 | 0.00 | 67 | 1013.7 |
| 20260510120521 | 40 | 242 | 7.8 | 12.2 | 0.00 | 0.00 | 0.00 | 70 | 1014.5 |
| 20260510120044 | 40 | 261 | 7.8 | 15.6 | 0.00 | 0.00 | 0.00 | 71 | 1014.3 |
| 20260510120004 | 40 | 227 | 7.8 | 16.5 | 0.00 | 0.00 | 0.00 | 71 | 1013.4 |
| 20260510114511 | 39 | 250 | 9.6 | 12.2 | 0.00 | 0.00 | 0.00 | 74 | 1014.3 |
| 20260510114507 | 39 | 242 | 10.4 | 13.0 | 0.00 | 0.00 | 0.00 | 73 | 1013.3 |
| 20260510114011 | 39 | 267 | 7.0 | 12.2 | 0.00 | 0.00 | 0.00 | 74 | 1014.2 |
| 20260510113533 | 39 | 226 | 6.1 | 12.2 | 0.00 | 0.00 | 0.00 | 75 | 1014.1 |
| 20260510113011 | 39 | 255 | 6.1 | 10.4 | 0.00 | 0.00 | 0.00 | 75 | 1013.9 |
| 20260510113003 | 39 | 257 | 6.1 | 13.0 | 0.00 | 0.00 | 0.00 | 75 | 1013.0 |
| 20260510112533 | 38 | 253 | 5.2 | 12.2 | 0.00 | 0.00 | 0.00 | 75 | 1013.9 |
| 20260510112022 | 38 | 221 | 7.8 | 12.2 | 0.00 | 0.00 | 0.00 | 76 | 1013.8 |
| 20260510111512 | 38 | 251 | 5.2 | 9.6 | 0.00 | 0.00 | 0.00 | 76 | 1013.8 |
| 20260510111504 | 38 | 250 | 5.2 | 10.4 | 0.00 | 0.00 | 0.00 | 75 | 1012.8 |
| 20260510111010 | 38 | 233 | 6.1 | 8.7 | 0.00 | 0.00 | 0.00 | 76 | 1013.7 |
| 20260510110511 | 37 | 239 | 6.1 | 7.8 | 0.00 | 0.00 | 0.00 | 76 | 1013.6 |
| 20260510110008 | 37 | 229 | 4.3 | 9.6 | 0.00 | 0.00 | 0.00 | 76 | 1012.5 |
| 20260510105533 | 37 | 223 | 4.3 | 7.8 | 0.00 | 0.00 | 0.00 | 76 | 1013.4 |
| 20260510105011 | 37 | 248 | 4.3 | 7.8 | 0.00 | 0.00 | 0.00 | 76 | 1013.3 |
| 20260510104514 | 37 | 250 | 4.3 | 8.7 | 0.00 | 0.00 | 0.00 | 76 | 1012.7 |
| 20260510104511 | 37 | 201 | 4.3 | 7.8 | 0.00 | 0.00 | 0.00 | 76 | 1013.2 |
| 20260510104044 | 37 | 224 | 5.2 | 7.8 | 0.00 | 0.00 | 0.00 | 76 | 1013.1 |
| 20260510103022 | 37 | 240 | 5.2 | 8.7 | 0.00 | 0.00 | 0.00 | 76 | 1013.0 |
| 20260510103011 | 37 | 245 | 5.2 | 9.6 | 0.00 | 0.00 | 0.00 | 76 | 1012.0 |
| 20260510102011 | 37 | 234 | 5.2 | 9.6 | 0.00 | 0.00 | 0.00 | 76 | 1012.8 |
| 20260510101511 | 37 | 239 | 5.2 | 7.8 | 0.00 | 0.00 | 0.00 | 76 | 1012.8 |
| 20260510101508 | 37 | 250 | 5.2 | 8.7 | 0.00 | 0.00 | 0.00 | 76 | 1011.5 |
| 20260510101011 | 37 | 217 | 5.2 | 7.8 | 0.00 | 0.00 | 0.00 | 76 | 1012.7 |
| 20260510100522 | 37 | 249 | 4.3 | 8.7 | 0.00 | 0.00 | 0.00 | 76 | 1012.7 |
| 20260510100033 | 37 | 230 | 4.3 | 8.7 | 0.00 | 0.00 | 0.00 | 76 | 1012.6 |
| 20260510100008 | 37 | 248 | 4.3 | 9.6 | 0.00 | 0.00 | 0.00 | 75 | 1011.3 |
| 20260510095511 | 37 | 238 | 5.2 | 7.8 | 0.00 | 0.00 | 0.00 | 76 | 1012.6 |
| 20260510095022 | 37 | 231 | 4.3 | 7.8 | 0.00 | 0.00 | 0.00 | 75 | 1012.5 |
| 20260510094510 | 37 | 230 | 5.2 | 7.8 | 0.00 | 0.00 | 0.00 | 75 | 1012.5 |
| 20260510094044 | 37 | 240 | 5.2 | 9.6 | 0.00 | 0.00 | 0.00 | 75 | 1012.4 |
| 20260510093522 | 37 | 231 | 6.1 | 11.3 | 0.00 | 0.00 | 0.00 | 74 | 1012.4 |
| 20260510093033 | 37 | 237 | 7.8 | 11.3 | 0.00 | 0.00 | 0.00 | 74 | 1012.3 |
| 20260510093008 | 37 | 254 | 7.8 | 12.2 | 0.00 | 0.00 | 0.00 | 74 | 1011.4 |
| 20260510092522 | 37 | 257 | 7.0 | 11.3 | 0.00 | 0.00 | 0.00 | 74 | 1012.3 |
| 20260510092011 | 37 | 230 | 7.0 | 10.4 | 0.00 | 0.00 | 0.00 | 74 | 1012.2 |
| 20260510091511 | 37 | 252 | 6.1 | 11.3 | 0.00 | 0.00 | 0.00 | 73 | 1011.7 |
| 20260510091011 | 37 | 253 | 7.0 | 10.4 | 0.00 | 0.00 | 0.00 | 74 | 1012.1 |
| 20260510090522 | 37 | 268 | 6.1 | 9.6 | 0.00 | 0.00 | 0.00 | 74 | 1012.0 |
| 20260510090022 | 37 | 237 | 6.1 | 9.6 | 0.00 | 0.00 | 0.00 | 73 | 1011.9 |
| 20260510090010 | 37 | 229 | 6.1 | 10.4 | 0.00 | 0.00 | 0.00 | 73 | 1011.3 |
| 20260510085544 | 37 | 214 | 5.2 | 9.6 | 0.00 | 0.00 | 0.00 | 73 | 1011.9 |
| 20260510085022 | 37 | 239 | 5.2 | 9.6 | 0.00 | 0.00 | 0.00 | 73 | 1011.8 |
| 20260510084511 | 37 | 236 | 5.2 | 8.7 | 0.00 | 0.00 | 0.00 | 73 | 1011.8 |
| 20260510084509 | 37 | 238 | 5.2 | 9.6 | 0.00 | 0.00 | 0.00 | 72 | 1010.6 |
| 20260510084011 | 37 | 230 | 6.1 | 8.7 | 0.00 | 0.00 | 0.00 | 72 | 1011.7 |
| 20260510083544 | 37 | 209 | 6.1 | 9.6 | 0.00 | 0.00 | 0.00 | 72 | 1011.5 |
| 20260510083022 | 37 | 215 | 7.0 | 9.6 | 0.00 | 0.00 | 0.00 | 73 | 1011.4 |
| 20260510083008 | 37 | 235 | 7.0 | 10.4 | 0.00 | 0.00 | 0.00 | 72 | 1010.0 |
| 20260510082522 | 37 | 228 | 5.2 | 8.7 | 0.00 | 0.00 | 0.00 | 73 | 1011.4 |
| 20260510082011 | 37 | 211 | 6.1 | 8.7 | 0.00 | 0.00 | 0.00 | 73 | 1011.4 |
| 20260510081528 | 37 | 217 | 5.2 | 8.7 | 0.00 | 0.00 | 0.00 | 72 | 1009.9 |
| 20260510081511 | 37 | 217 | 5.2 | 7.8 | 0.00 | 0.00 | 0.00 | 72 | 1011.4 |
| 20260510081011 | 38 | 223 | 5.2 | 8.7 | 0.00 | 0.00 | 0.00 | 72 | 1011.2 |
| 20260510080545 | 38 | 229 | 5.2 | 7.8 | 0.00 | 0.00 | 0.00 | 72 | 1011.3 |
| 20260510080014 | 38 | 225 | 5.2 | 7.8 | 0.00 | 0.00 | 0.00 | 71 | 1011.1 |
| 20260510080002 | 38 | 224 | 5.2 | 8.7 | 0.00 | 0.00 | 0.00 | 71 | 1009.9 |
| 20260510075511 | 38 | 209 | 6.1 | 8.7 | 0.00 | 0.00 | 0.00 | 71 | 1011.0 |
| 20260510074522 | 38 | 228 | 5.2 | 9.6 | 0.00 | 0.00 | 0.00 | 71 | 1011.0 |
| 20260510074503 | 38 | 240 | 5.2 | 10.4 | 0.00 | 0.00 | 0.00 | 70 | 1010.1 |
| 20260510074011 | 38 | 199 | 5.2 | 8.7 | 0.00 | 0.00 | 0.00 | 71 | 1011.0 |
| 20260510073522 | 38 | 240 | 5.2 | 7.8 | 0.00 | 0.00 | 0.00 | 70 | 1011.0 |
| 20260510073001 | 38 | 238 | 4.3 | 7.8 | 0.00 | 0.00 | 0.00 | 70 | 1010.5 |
| 20260510072546 | 38 | 236 | 4.3 | 7.0 | 0.00 | 0.00 | 0.00 | 70 | 1010.8 |
| 20260510072011 | 39 | 236 | 4.3 | 8.7 | 0.00 | 0.00 | 0.00 | 69 | 1010.7 |
| 20260510071511 | 39 | 209 | 5.2 | 8.7 | 0.00 | 0.00 | 0.00 | 69 | 1010.7 |
| 20260510071502 | 39 | 236 | 5.2 | 9.6 | 0.00 | 0.00 | 0.00 | 69 | 1010.1 |
| 20260510071044 | 39 | 221 | 6.1 | 8.7 | 0.00 | 0.00 | 0.00 | 69 | 1010.7 |
| 20260510070511 | 39 | 228 | 6.1 | 8.7 | 0.00 | 0.00 | 0.00 | 69 | 1010.6 |
| 20260510070011 | 39 | 227 | 5.2 | 9.6 | 0.00 | 0.00 | 0.00 | 69 | 1010.6 |
| 20260510070003 | 39 | 228 | 5.2 | 10.4 | 0.00 | 0.00 | 0.00 | 68 | 1009.8 |
| 20260510065533 | 40 | 238 | 6.1 | 9.6 | 0.00 | 0.00 | 0.00 | 68 | 1010.6 |
| 20260510065033 | 40 | 255 | 6.1 | 9.6 | 0.00 | 0.00 | 0.00 | 68 | 1010.4 |
| 20260510064511 | 40 | 249 | 6.1 | 10.4 | 0.00 | 0.00 | 0.00 | 67 | 1010.4 |
| 20260510064503 | 40 | 239 | 6.1 | 11.3 | 0.00 | 0.00 | 0.00 | 67 | 1008.9 |
| 20260510064033 | 40 | 277 | 7.8 | 12.2 | 0.00 | 0.00 | 0.00 | 67 | 1010.3 |
| 20260510063511 | 40 | 259 | 7.8 | 12.2 | 0.00 | 0.00 | 0.00 | 66 | 1010.3 |
| 20260510063011 | 40 | 261 | 7.8 | 11.3 | 0.00 | 0.00 | 0.00 | 66 | 1010.3 |
| 20260510063006 | 40 | 259 | 8.7 | 12.2 | 0.00 | 0.00 | 0.00 | 65 | 1008.8 |
| 20260510062522 | 41 | 263 | 7.8 | 12.2 | 0.00 | 0.00 | 0.00 | 65 | 1010.3 |
| 20260510062022 | 41 | 253 | 7.8 | 14.8 | 0.00 | 0.00 | 0.00 | 65 | 1010.2 |
| 20260510061511 | 41 | 267 | 7.8 | 14.8 | 0.00 | 0.00 | 0.00 | 64 | 1010.2 |
| 20260510061501 | 41 | 261 | 8.7 | 15.6 | 0.00 | 0.00 | 0.00 | 64 | 1008.9 |
| 20260510060523 | 41 | 270 | 8.7 | 16.5 | 0.00 | 0.00 | 0.00 | 63 | 1010.2 |
| 20260510060011 | 41 | 261 | 11.3 | 17.4 | 0.00 | 0.00 | 0.00 | 62 | 1010.2 |
| 20260510060005 | 41 | 261 | 11.3 | 18.2 | 0.00 | 0.00 | 0.00 | 61 | 1008.8 |
| 20260510055522 | 41 | 286 | 11.3 | 15.6 | 0.00 | 0.00 | 0.00 | 62 | 1010.2 |
| 20260510055011 | 41 | 269 | 11.3 | 20.0 | 0.00 | 0.00 | 0.00 | 62 | 1010.2 |
| 20260510054512 | 42 | 275 | 12.2 | 20.0 | 0.00 | 0.00 | 0.00 | 61 | 1010.1 |
| 20260510054503 | 42 | 294 | 13.0 | 21.7 | 0.00 | 0.00 | 0.00 | 61 | 1009.1 |
| 20260510054011 | 42 | 261 | 13.0 | 21.7 | 0.00 | 0.00 | 0.00 | 60 | 1010.0 |
| 20260510053511 | 42 | 286 | 13.0 | 21.7 | 0.00 | 0.00 | 0.00 | 60 | 1009.9 |
| 20260510053011 | 42 | 274 | 13.0 | 18.2 | 0.00 | 0.00 | 0.00 | 60 | 1009.9 |
| 20260510053003 | 42 | 277 | 13.9 | 20.0 | 0.00 | 0.00 | 0.00 | 59 | 1009.2 |
| 20260510052522 | 42 | 261 | 13.0 | 19.1 | 0.00 | 0.00 | 0.00 | 59 | 1009.8 |
| 20260510052022 | 42 | 281 | 13.9 | 19.1 | 0.00 | 0.00 | 0.00 | 59 | 1009.8 |
| 20260510051509 | 42 | 286 | 13.0 | 20.9 | 0.00 | 0.00 | 0.00 | 60 | 1009.2 |
| 20260510050522 | 42 | 272 | 12.2 | 17.4 | 0.00 | 0.00 | 0.00 | 61 | 1009.7 |
| 20260510050002 | 42 | 282 | 13.0 | 18.2 | 0.00 | 0.00 | 0.00 | 59 | 1009.2 |
| 20260510045045 | 42 | 262 | 13.0 | 19.1 | 0.00 | 0.00 | 0.00 | 60 | 1009.6 |
| 20260510044523 | 42 | 251 | 12.2 | 20.0 | 0.00 | 0.00 | 0.00 | 59 | 1009.6 |
| 20260510044508 | 42 | 272 | 12.2 | 26.1 | 0.00 | 0.00 | 0.00 | 58 | 1008.8 |
| 20260510044044 | 42 | 253 | 14.8 | 24.3 | 0.00 | 0.00 | 0.00 | 59 | 1009.4 |
| 20260510043512 | 42 | 271 | 13.9 | 22.6 | 0.00 | 0.00 | 0.00 | 59 | 1009.4 |
| 20260510043011 | 42 | 265 | 13.9 | 20.9 | 0.00 | 0.00 | 0.00 | 59 | 1009.4 |
| 20260510042511 | 42 | 259 | 10.4 | 17.4 | 0.00 | 0.00 | 0.00 | 59 | 1009.4 |
| 20260510041545 | 42 | 265 | 13.0 | 20.0 | 0.00 | 0.00 | 0.00 | 62 | 1009.3 |
| 20260510041503 | 42 | 279 | 13.9 | 21.7 | 0.00 | 0.00 | 0.00 | 61 | 1007.6 |
| 20260510041023 | 42 | 272 | 14.8 | 20.0 | 0.00 | 0.00 | 0.00 | 65 | 1009.1 |
| 20260510040522 | 42 | 300 | 13.9 | 21.7 | 0.00 | 0.00 | 0.00 | 66 | 1008.9 |
| 20260510040011 | 42 | 301 | 15.6 | 21.7 | 0.00 | 0.00 | 0.00 | 63 | 1008.9 |
| 20260510040008 | 42 | 303 | 15.6 | 23.5 | 0.00 | 0.00 | 0.00 | 62 | 1007.5 |
| 20260510035522 | 42 | 287 | 14.8 | 21.7 | 0.00 | 0.00 | 0.00 | 58 | 1009.0 |
| 20260510034512 | 42 | 284 | 14.8 | 19.1 | 0.00 | 0.00 | 0.00 | 58 | 1007.6 |
| 20260510034011 | 42 | 269 | 8.7 | 15.6 | 0.00 | 0.00 | 0.00 | 61 | 1008.9 |
| 20260510033523 | 42 | 261 | 9.6 | 18.2 | 0.00 | 0.00 | 0.00 | 62 | 1009.0 |
| 20260510033011 | 42 | 242 | 6.1 | 13.0 | 0.00 | 0.00 | 0.00 | 64 | 1008.9 |
| 20260510033003 | 42 | 260 | 7.0 | 13.9 | 0.00 | 0.00 | 0.00 | 63 | 1007.7 |
| 20260510032511 | 42 | 266 | 7.8 | 13.0 | 0.00 | 0.00 | 0.00 | 64 | 1008.9 |
| 20260510032034 | 43 | 263 | 7.0 | 14.8 | 0.00 | 0.00 | 0.00 | 63 | 1008.8 |
| 20260510031523 | 43 | 302 | 8.7 | 16.5 | 0.00 | 0.00 | 0.00 | 63 | 1008.9 |
| 20260510031504 | 43 | 279 | 9.6 | 17.4 | 0.00 | 0.00 | 0.00 | 63 | 1007.9 |
| 20260510030511 | 43 | 264 | 9.6 | 14.8 | 0.00 | 0.00 | 0.00 | 63 | 1008.8 |
| 20260510030011 | 43 | 286 | 8.7 | 15.6 | 0.00 | 0.00 | 0.00 | 63 | 1008.8 |
| 20260510025523 | 43 | 263 | 10.4 | 15.6 | 0.00 | 0.00 | 0.00 | 63 | 1008.8 |
| 20260510025012 | 44 | 265 | 11.3 | 16.5 | 0.00 | 0.00 | 0.00 | 62 | 1008.8 |
| 20260510024510 | 44 | 265 | 12.2 | 16.5 | 0.00 | 0.00 | 0.00 | 61 | 1008.3 |
| 20260510023522 | 44 | 275 | 9.6 | 13.9 | 0.00 | 0.00 | 0.00 | 60 | 1008.7 |
| 20260510023045 | 44 | 274 | 9.6 | 17.4 | 0.00 | 0.00 | 0.00 | 60 | 1008.5 |
| 20260510023014 | 44 | 278 | 9.6 | 18.2 | 0.00 | 0.00 | 0.00 | 59 | 1007.9 |
| 20260510022511 | 44 | 277 | 7.8 | 15.6 | 0.00 | 0.00 | 0.00 | 60 | 1008.5 |
| 20260510022011 | 44 | 271 | 8.7 | 17.4 | 0.00 | 0.00 | 0.00 | 60 | 1008.5 |
| 20260510021509 | 44 | 232 | 8.7 | 13.9 | 0.00 | 0.00 | 0.00 | 60 | 1006.9 |
| 20260510021011 | 44 | 250 | 7.0 | 10.4 | 0.00 | 0.00 | 0.00 | 62 | 1008.2 |
| 20260510020534 | 44 | 246 | 6.1 | 12.2 | 0.00 | 0.00 | 0.00 | 62 | 1008.1 |
| 20260510020012 | 44 | 273 | 7.8 | 13.9 | 0.00 | 0.00 | 0.00 | 62 | 1007.9 |
| 20260510020004 | 44 | 259 | 7.8 | 14.8 | 0.00 | 0.00 | 0.00 | 62 | 1006.5 |
| 20260510015511 | 44 | 268 | 8.7 | 14.8 | 0.00 | 0.00 | 0.00 | 62 | 1007.8 |
| 20260510015011 | 45 | 271 | 10.4 | 14.8 | 0.00 | 0.00 | 0.00 | 62 | 1007.6 |
| 20260510014523 | 45 | 258 | 10.4 | 19.1 | 0.00 | 0.00 | 0.00 | 63 | 1007.5 |
| 20260510014506 | 45 | 251 | 10.4 | 20.9 | 0.00 | 0.00 | 0.00 | 62 | 1006.2 |
| 20260510014012 | 45 | 282 | 13.0 | 20.0 | 0.00 | 0.00 | 0.00 | 62 | 1007.4 |
| 20260510013512 | 45 | 273 | 13.9 | 20.0 | 0.00 | 0.00 | 0.00 | 62 | 1007.3 |
| 20260510013011 | 45 | 274 | 12.2 | 18.2 | 0.00 | 0.00 | 0.00 | 61 | 1007.1 |
| 20260510013002 | 45 | 294 | 13.0 | 20.0 | 0.00 | 0.00 | 0.00 | 61 | 1006.0 |
| 20260510012511 | 45 | 268 | 13.0 | 18.2 | 0.00 | 0.00 | 0.00 | 62 | 1007.0 |
| 20260510012034 | 45 | 299 | 12.2 | 18.2 | 0.00 | 0.00 | 0.00 | 63 | 1007.0 |
| 20260510011512 | 45 | 290 | 13.0 | 18.2 | 0.00 | 0.00 | 0.00 | 63 | 1006.9 |
| 20260510011505 | 45 | 256 | 13.0 | 20.0 | 0.00 | 0.00 | 0.00 | 63 | 1005.7 |
| 20260510011023 | 45 | 269 | 13.0 | 18.2 | 0.00 | 0.00 | 0.00 | 63 | 1006.9 |
| 20260510010012 | 45 | 265 | 12.2 | 17.4 | 0.00 | 0.00 | 0.00 | 65 | 1006.8 |
| 20260510010003 | 45 | 286 | 12.2 | 20.9 | 0.00 | 0.00 | 0.00 | 64 | 1005.8 |
| 20260510005512 | 45 | 262 | 13.0 | 19.1 | 0.00 | 0.00 | 0.00 | 65 | 1006.7 |
| 20260510005012 | 45 | 296 | 13.0 | 19.1 | 0.00 | 0.00 | 0.00 | 67 | 1006.6 |
| 20260510004522 | 45 | 292 | 14.8 | 19.1 | 0.00 | 0.00 | 0.00 | 71 | 1006.6 |
| 20260510004504 | 45 | 279 | 15.6 | 21.7 | 0.00 | 0.00 | 0.00 | 70 | 1005.9 |
| 20260510004034 | 45 | 282 | 13.0 | 20.0 | 0.00 | 0.00 | 0.00 | 68 | 1006.4 |
| 20260510003512 | 45 | 275 | 14.8 | 22.6 | 0.00 | 0.00 | 0.00 | 71 | 1006.2 |
| 20260510003011 | 45 | 289 | 14.8 | 25.2 | 0.00 | 0.00 | 0.00 | 71 | 1006.1 |
| 20260510002512 | 45 | 289 | 17.4 | 25.2 | 0.00 | 0.00 | 0.00 | 71 | 1006.1 |
| 20260510002045 | 45 | 288 | 17.4 | 25.2 | 0.00 | 0.00 | 0.00 | 71 | 1005.9 |
| 20260510001545 | 45 | 275 | 18.2 | 23.5 | 0.00 | 0.00 | 0.00 | 71 | 1005.7 |
| 20260510001506 | 45 | 262 | 18.2 | 25.2 | 0.00 | 0.00 | 0.00 | 71 | 1005.1 |
| 20260510001023 | 45 | 276 | 16.5 | 23.5 | 0.00 | 0.00 | 0.00 | 69 | 1005.6 |
| 20260510000522 | 45 | 275 | 15.6 | 23.5 | 0.00 | 0.00 | 0.00 | 69 | 1005.4 |
| 20260510000011 | 46 | 290 | 16.5 | 25.2 | 0.00 | 0.00 | 0.00 | 68 | 1004.4 |
| 20260509235523 | 46 | 298 | 17.4 | 23.5 | 0.00 | 0.00 | 0.00 | 68 | 1005.2 |
| 20260509235011 | 46 | 275 | 17.4 | 24.3 | 0.00 | 0.00 | 0.00 | 70 | 1005.0 |
| 20260509234523 | 45 | 312 | 16.5 | 25.2 | 0.00 | 0.00 | 0.00 | 72 | 1004.9 |
| 20260509234508 | 45 | 278 | 17.4 | 26.1 | 0.00 | 0.00 | 0.00 | 70 | 1003.5 |
| 20260509234011 | 46 | 288 | 16.5 | 26.1 | 0.00 | 0.00 | 0.00 | 71 | 1004.7 |
| 20260509233512 | 47 | 302 | 19.1 | 26.1 | 0.00 | 0.00 | 0.00 | 69 | 1004.5 |
| 20260509233023 | 47 | 295 | 19.1 | 27.8 | 0.00 | 0.00 | 0.00 | 66 | 1004.5 |
| 20260509233004 | 47 | 286 | 20.0 | 29.5 | 0.00 | 0.00 | 0.00 | 66 | 1003.2 |
| 20260509232512 | 48 | 277 | 19.1 | 28.7 | 0.00 | 0.00 | 0.00 | 62 | 1004.3 |
| 20260509231545 | 49 | 297 | 17.4 | 24.3 | 0.00 | 0.00 | 0.00 | 58 | 1004.0 |
| 20260509231509 | 49 | 294 | 17.4 | 26.1 | 0.00 | 0.00 | 0.00 | 57 | 1002.8 |
| 20260509231023 | 49 | 302 | 18.2 | 24.3 | 0.00 | 0.00 | 0.00 | 55 | 1003.9 |
| 20260509230523 | 53 | 265 | 17.4 | 26.1 | 0.00 | 0.00 | 0.00 | 39 | 1003.7 |
| 20260509230023 | 53 | 259 | 16.5 | 26.1 | 0.00 | 0.00 | 0.00 | 40 | 1003.5 |
| 20260509230003 | 53 | 273 | 17.4 | 27.8 | 0.00 | 0.00 | 0.00 | 39 | 1002.5 |